Location: Brownlee
(50.7397°N, 106.0159°W)
Time: 02:12:26
(UTC+00:00)

Envisat - Pass Details

Date: 07 December 2022
Orbit: 763 x 765 km, 98.2° (Epoch: 08 February)

Event Time Altitude Azimuth Distance (km) Brightness Sun altitude
Rises 10:10:14 0° 25° (NNE) 3,246 6.7 -43.1°
Reaches altitude 10° 10:13:08 10° 42° (NE) 2,314 6.0 -42.7°
Enters shadow 10:13:32 12° 45° (NE) 2,206 5.9 -42.6°
